Regional Weather Roundup
Issued by NWS Albany, NY

Home | Current Version | Previous Version | Graphics & Text | Print | Product List | Glossary Off
Versions: 1 2 3 4 5 6 7 8 9 10 11 12 13 14 15 16 17 18 19 20 21 22 23 24 25 26 27

000
ASUS41 KALY 210010
RWRALY

NEW YORK STATE HOURLY WEATHER ROUNDUP
NATIONAL WEATHER SERVICE ALBANY NY
800 PM EDT WED SEP 20 2017

NOTE: "FAIR" INDICATES FEW OR NO CLOUDS BELOW 12,000 FEET WITH NO
SIGNIFICANT WEATHER AND/OR NO OBSTRUCTIONS TO VISIBILITY.

NYZ032-033-038>043-046>054-057>066-NYZ062>081-082-084-210100-
EAST


CITY           SKY/WX    TMP DP  RH WIND       PRES   REMARKS
ALBANY         CLOUDY    72  63  73 N6        29.97R
GLENS FALLS    CLOUDY    69  62  78 N6        29.98R
POUGHKEEPSIE   MOCLDY    72  63  73 N3        29.92R
NEWBURGH       MOCLDY    73  66  78 NE9       29.95S
MONTGOMERY     CLOUDY    70  65  84 N6        29.94R
WHITE PLAINS   CLOUDY    73  64  73 NW8       29.91R
ISLIP          CLOUDY    75  65  70 N13       29.87S
NEW YORK CITY  MOCLDY    77  65  66 N12       29.90R
CENTRAL PARK   PTCLDY    77  63  61 MISG      29.94R
$$

NYZ005>009-017-018-044>046-055-056-210100-
CENTRAL


CITY           SKY/WX    TMP DP  RH WIND       PRES   REMARKS
FULTON         CLEAR     66  64  93 W5        30.01R
SYRACUSE       MOCLDY    71  64  78 W6        29.98S
ROME           CLOUDY    72  67  84 NW5       29.99R
ELMIRA         CLEAR     71  64  78 CALM      30.01R
BINGHAMTON     CLEAR     70  58  65 N7        30.02S
MONTICELLO     CLOUDY    69  61  75 N6        30.01R
$$

NYZ026>034-041>043-087-210100-
NORTH


CITY           SKY/WX    TMP DP  RH WIND       PRES   REMARKS
WATERTOWN      PTCLDY    64  63  96 CALM      30.01R
FORT DRUM      NOT AVBL
OGDENSBURG     FAIR      66  63  88 CALM      30.03R
MASSENA        CLOUDY    69  65  86 CALM      30.03S
SARANAC LAKE   CLOUDY    59  59 100 N3        30.05S
PLATTSBURGH    CLOUDY    71  64  78 NW8       30.01R
$$

NYZ001>004-010>016-019>021-085-210100-
WEST


CITY           SKY/WX    TMP DP  RH WIND       PRES   REMARKS
NIAGARA FALLS  CLEAR     73  63  70 NE3       30.02S
BUFFALO        PTCLDY    72  64  76 NE7       30.04R
DUNKIRK        CLEAR     66  64  93 CALM      30.03R
JAMESTOWN      CLEAR     70  61  73 N8        30.08R
WELLSVILLE     CLEAR     70  60  70 N3        30.09R
ROCHESTER      CLEAR     68  63  84 CALM      30.04R
PENN YAN       CLEAR     65  58  78 CALM      30.04R
$$

             KEY
       WCI = WIND CHILL INDEX
       VSB = VISIBILITY
       HX  = HEAT INDEX
$$




USA.gov is the U.S. government's official web portal to all federal, state and local government web resources and services.